Miscellaneous Local Product
Issued by NWS Hastings, NE

Home | Current Version | Previous Version | Text Only | Print | Product List | Glossary On
Versions: 1 2 3 4 5 6 7 8 9 10 11 12 13 14 15 16 17 18 19 20 21 22 23 24 25 26 27 28 29 30 31 32 33 34 35 36 37 38 39 40 41 42 43 44 45 46 47 48 49 50
901
AXUS43 KGID 240502
MISGRI

GID CWA HOURLY WEATHER ROUNDUP
NATIONAL WEATHER SERVICE HASTINGS NE
1200 AM CDT WED MAY 24 2017

NOTE: "FAIR" INDICATES FEW OR NO CLOUDS BELOW 12,000 FEET WITH NO
SIGNIFICANT WEATHER AND/OR OBSTRUCTIONS TO VISIBILITY.

...SOUTH CENTRAL NEBRASKA...

CITY           SKY/WX    TMP DP  RH WIND       PRES   REMARKS
GRAND ISLAND   CLOUDY    50  43  77 N14       29.92F
HASTINGS       CLOUDY    50  42  74 N14       29.93F
KEARNEY        CLOUDY    48  39  71 N10       29.95F
ORD            CLOUDY    50  41  71 N9        29.93F
YORK           MOCLDY    48  45  87 NW12      29.90F
AURORA         CLOUDY    50  44  80 N14       29.91F
LEXINGTON      CLEAR     42  38  86 W5        29.97S
HOLDREGE       CLEAR     45  39  79 NW5       29.95F
HEBRON         PTCLDY    51  44  78 N9        29.90S

...NEBRASKA PANHANDLE...

CITY           SKY/WX    TMP DP  RH WIND       PRES   REMARKS
CHADRON        CLOUDY    42  38  85 CALM      30.01F
ALLIANCE       CLOUDY    38  33  82 CALM      30.02S
SCOTTSBLUFF    CLEAR     46  37  71 CALM      30.03F
SIDNEY         CLOUDY    37  33  85 CALM      30.04F

...WESTERN AND NORTH CENTRAL NEBRASKA...

CITY           SKY/WX    TMP DP  RH WIND       PRES   REMARKS
VALENTINE      CLEAR     42  35  76 W8        29.99F
AINSWORTH      CLOUDY    48  42  79 NW6       29.97F
ONEILL         CLOUDY    49  42  76 NW12      29.95F
BROKEN BOW     CLOUDY    49  40  71 N10       29.96F
IMPERIAL       CLEAR     44  35  70 NW6       30.01F
NORTH PLATTE   CLEAR     44  39  82 N8        30.00S
MCCOOK         CLEAR     45  37  73 N10       29.99S

...EASTERN NEBRASKA...

CITY           SKY/WX    TMP DP  RH WIND       PRES   REMARKS
NORFOLK        MOCLDY    49  44  83 NW14      29.88F
SO SIOUX CITY  PTCLDY    49  48  97 NW8       29.85F
TEKAMAH        MOCLDY    50  46  86 NW12      29.84S
ALBION         CLOUDY    51  43  75 N9        29.91F
OMAHA EPPLEY   PTCLDY    49  45  86 NW8       29.82F
OFFUTT AFB     PTCLDY    50  47  89 NW7       29.81F
MILLARD        CLOUDY    53  49  86 NW7       29.83F
LINCOLN        CLOUDY    53  45  74 NW17      29.87F
NEBRASKA CITY  CLOUDY    52  46  79 NW13      29.81F
BEATRICE       CLOUDY    52  46  80 N13       29.85F
FALLS CITY     PTCLDY    50  46  86 W10       29.80F

...NORTHERN KANSAS...

CITY           SKY/WX    TMP DP  RH WIND       PRES   REMARKS
GOODLAND       CLEAR     41  36  82 NW5       30.02S
HILL CITY      CLEAR     46  40  79 NW8       29.97F
NORTON         CLEAR     43  36  75 NW8       29.96F
PHILLIPSBURG   MOCLDY    45  43  93 W6        29.96F
SMITH CENTER   CLEAR     45  39  81 NW3       29.94F
HAYS           CLEAR     45  40  82 NW6       29.96F
RUSSELL        CLEAR     47  42  83 NW9       29.93F
CONCORDIA      CLEAR     50  44  80 NW9       29.90S
SALINA         PTCLDY    53  45  74 NW9       29.90F
TOPEKA         CLOUDY    54  48  80 NW8       29.82F



USA.gov is the U.S. government's official web portal to all federal, state and local government web resources and services.